M I D A S
Marine Information and Data Acquisition System
Tripno 336 of the Zeeleeuw from 2002-09-17 06:37:24 to 2002-09-17 14:37:17
Back to CruiseResearch ActivitiesStationsMapUnderway DataData graphs

EquipmentUnitsComments
TimeDGPSUTC
LatitudeDGPSDM.mWGS84
LongitudeDGPSDM.mWGS84
SpeedMeteo Stationm/sRelative wind speed
DirectionMeteo StationdegRelative wind direction
TemperatureMeteo Stationdeg CelciusAir temperature
PressureMeteo StationPaAtmospheric pressure
HumidityMeteo Station%Relative humidity
Missing or incorrect values are displayed as -999
Metereological data collected by the RV Zeeleeuw from 2002-09-17 06:37:24 to 2002-09-17 14:37:17
                                                                                    Next 1000 lines
Time Latitude Longitude Speed Direction Temperature Pressure Humidity
2002-09-17 06:37:30 51°13.661 2°55.961 1.2 183 15 101840 77
2002-09-17 06:37:35 51°13.661 2°55.961 1.5 149 15 101840 77
2002-09-17 06:37:41 51°13.661 2°55.961 1.7 134 15 101840 77
2002-09-17 06:37:46 51°13.66 2°55.961 1.9 143 15 101840 77
2002-09-17 06:37:51 51°13.66 2°55.961 1.5 129 15 101840 77
2002-09-17 06:37:55 51°13.66 2°55.961 1.1 160 15 101840 77
2002-09-17 06:38:01 51°13.66 2°55.961 1.2 164 15 101840 77
2002-09-17 06:38:06 51°13.66 2°55.961 0.9 139 15 101840 77
2002-09-17 06:38:11 51°13.66 2°55.961 1.1 173 15 101840 77
2002-09-17 06:38:16 51°13.66 2°55.961 1.8 150 15 101840 77
2002-09-17 06:38:21 51°13.66 2°55.961 1.7 157 15 101840 77
2002-09-17 06:38:26 51°13.66 2°55.961 1.8 126 15 101840 77
2002-09-17 06:38:31 51°13.66 2°55.961 1.4 138 15 101840 77
2002-09-17 06:38:35 51°13.66 2°55.961 1.3 134 15 101840 77
2002-09-17 06:38:41 51°13.66 2°55.961 1.3 135 15 101840 78
2002-09-17 06:38:46 51°13.66 2°55.961 0.8 135 15 101840 78
2002-09-17 06:38:50 51°13.66 2°55.961 1.2 168 15 101840 77
2002-09-17 06:38:56 51°13.66 2°55.96 1.5 180 15 101840 77
2002-09-17 06:39:01 51°13.66 2°55.96 1.3 152 15 101840 77
2002-09-17 06:39:06 51°13.66 2°55.96 1.3 141 15 101840 77
2002-09-17 06:39:11 51°13.66 2°55.96 1.1 120 15 101840 77
2002-09-17 06:39:15 51°13.66 2°55.96 1.1 153 15 101840 77
2002-09-17 06:39:19 51°13.66 2°55.96 1 141 15 101840 77
2002-09-17 06:39:26 51°13.659 2°55.961 0.7 143 15 101840 77
2002-09-17 06:39:31 51°13.659 2°55.961 1 167 15 101840 77
2002-09-17 06:39:36 51°13.658 2°55.961 1.7 147 15 101840 77
2002-09-17 06:39:41 51°13.658 2°55.96 1.7 135 15 101840 77
2002-09-17 06:39:46 51°13.659 2°55.959 1.5 128 15 101840 77
2002-09-17 06:39:51 51°13.659 2°55.958 1.5 133 15 101840 77
2002-09-17 06:39:55 51°13.66 2°55.956 1.4 112 15 101840 77
2002-09-17 06:40:01 51°13.66 2°55.953 1.8 92 15 101840 77
2002-09-17 06:40:06 51°13.661 2°55.95 2.1 122 15 101840 77
2002-09-17 06:40:11 51°13.662 2°55.946 1.6 97 15 101840 77
2002-09-17 06:40:17 51°13.663 2°55.941 1.7 100 15 101840 77
2002-09-17 06:40:22 51°13.664 2°55.937 1.9 98 15 101840 77
2002-09-17 06:40:27 51°13.665 2°55.933 1.7 112 15 101840 77
2002-09-17 06:40:31 51°13.665 2°55.929 2 107 15.1 101840 77
2002-09-17 06:40:37 51°13.666 2°55.924 1.9 100 15.1 101840 77
2002-09-17 06:40:42 51°13.667 2°55.919 1.5 69 15 101840 77
2002-09-17 06:40:47 51°13.667 2°55.914 1.3 89 15 101840 77
2002-09-17 06:40:51 51°13.667 2°55.91 1.4 71 15.1 101840 77
2002-09-17 06:40:57 51°13.668 2°55.904 2 72 15.1 101840 77
2002-09-17 06:41:02 51°13.668 2°55.899 1.6 80 15 101840 77
2002-09-17 06:41:07 51°13.669 2°55.894 1.9 81 15 101840 77
2002-09-17 06:41:11 51°13.669 2°55.889 1.8 78 15 101840 77
2002-09-17 06:41:18 51°13.669 2°55.881 1.8 81 15 101840 77
2002-09-17 06:41:22 51°13.669 2°55.877 2.1 91 15.1 101840 77
2002-09-17 06:41:27 51°13.67 2°55.871 2.8 94 15.1 101840 77
2002-09-17 06:41:31 51°13.67 2°55.866 2 78 15.1 101840 77
2002-09-17 06:41:37 51°13.67 2°55.859 2.2 87 15.1 101840 77
2002-09-17 06:41:42 51°13.671 2°55.853 2.2 94 15.1 101840 77
2002-09-17 06:41:47 51°13.671 2°55.847 2.3 79 15.1 101840 77
2002-09-17 06:41:51 51°13.672 2°55.842 2.5 83 15.1 101840 77
2002-09-17 06:41:57 51°13.672 2°55.835 2.7 83 15.1 101840 77
2002-09-17 06:42:02 51°13.673 2°55.829 2.5 84 15.1 101830 77
2002-09-17 06:42:07 51°13.673 2°55.823 2.3 82 15.1 101830 77
2002-09-17 06:42:11 51°13.673 2°55.818 2.7 90 15 101840 77
2002-09-17 06:42:17 51°13.673 2°55.811 2.9 91 15 101840 77
2002-09-17 06:42:22 51°13.673 2°55.805 2.2 86 15 101840 77
2002-09-17 06:42:27 51°13.673 2°55.8 1.9 77 15 101840 77
2002-09-17 06:42:31 51°13.672 2°55.796 2.1 86 15.1 101830 77
2002-09-17 06:42:36 51°13.672 2°55.792 1.6 101 15.1 101830 77
2002-09-17 06:42:41 51°13.672 2°55.789 2.3 96 15 101840 77
2002-09-17 06:42:46 51°13.672 2°55.787 2 110 15 101840 77
2002-09-17 06:42:51 51°13.673 2°55.786 1.6 99 15.1 101840 77
2002-09-17 06:42:56 51°13.673 2°55.785 1.4 116 15.1 101840 77
2002-09-17 06:43:01 51°13.674 2°55.785 1.5 106 15.1 101840 77
2002-09-17 06:43:06 51°13.675 2°55.785 1.4 112 15.1 101840 77
2002-09-17 06:43:10 51°13.675 2°55.786 1 92 15.1 101840 77
2002-09-17 06:43:15 51°13.676 2°55.787 0.8 86 15.1 101840 77
2002-09-17 06:43:21 51°13.677 2°55.789 0.9 87 15.1 101840 77
2002-09-17 06:43:26 51°13.679 2°55.791 1 91 15.1 101840 77
2002-09-17 06:43:31 51°13.68 2°55.793 0.7 93 15.1 101840 77
2002-09-17 06:43:36 51°13.682 2°55.794 0.9 79 15.1 101840 77
2002-09-17 06:43:41 51°13.683 2°55.795 1.2 54 15.1 101830 77
2002-09-17 06:43:46 51°13.685 2°55.796 1.4 46 15.1 101830 77
2002-09-17 06:43:51 51°13.686 2°55.796 1.9 61 15.1 101840 77
2002-09-17 06:43:56 51°13.687 2°55.796 2.2 62 15.1 101840 77
2002-09-17 06:44:01 51°13.687 2°55.796 2.5 39 15.1 101830 77
2002-09-17 06:44:06 51°13.687 2°55.795 2.3 31 15.1 101830 77
2002-09-17 06:44:11 51°13.687 2°55.794 2 22 15.1 101830 77
2002-09-17 06:44:16 51°13.686 2°55.794 1.5 29 15.1 101830 77
2002-09-17 06:44:19 51°13.686 2°55.793 1.3 47 15.1 101830 77
2002-09-17 06:44:26 51°13.685 2°55.792 2 43 15.1 101830 77
2002-09-17 06:44:32 51°13.683 2°55.79 1.7 17 15.1 101830 77
2002-09-17 06:44:37 51°13.682 2°55.788 2 133 15.1 101830 77
2002-09-17 06:44:42 51°13.681 2°55.787 1.9 33 15.1 101840 77
2002-09-17 06:44:47 51°13.68 2°55.786 2.2 40 15.1 101840 77
2002-09-17 06:44:50 51°13.679 2°55.785 2.1 44 15.1 101830 77
2002-09-17 06:44:57 51°13.677 2°55.784 1.5 38 15.1 101830 77
2002-09-17 06:45:02 51°13.676 2°55.784 1.9 45 15.1 101830 77
2002-09-17 06:45:07 51°13.675 2°55.784 2 34 15.1 101830 77
2002-09-17 06:45:12 51°13.674 2°55.783 1.7 36 15.1 101830 77
2002-09-17 06:45:15 51°13.674 2°55.783 1.5 23 15.1 101830 77
2002-09-17 06:45:19 51°13.673 2°55.783 1.2 30 15.1 101840 77
2002-09-17 06:45:26 51°13.674 2°55.782 1.2 11 15.1 101840 77
2002-09-17 06:45:31 51°13.676 2°55.781 0.9 351 15.2 101830 77
2002-09-17 06:45:35 51°13.677 2°55.78 0.5 340 15.2 101830 77
2002-09-17 06:45:42 51°13.681 2°55.778 0.7 302 15.2 101830 77
2002-09-17 06:45:46 51°13.684 2°55.776 1.1 283 15.2 101830 77
2002-09-17 06:45:50 51°13.687 2°55.774 1.1 284 15.2 101830 77
2002-09-17 06:45:56 51°13.691 2°55.769 1.3 275 15.2 101830 77
2002-09-17 06:46:01 51°13.696 2°55.764 1.3 260 15.2 101830 77
2002-09-17 06:46:06 51°13.701 2°55.758 1.5 271 15.2 101830 77
2002-09-17 06:46:11 51°13.706 2°55.752 1.8 256 15.2 101830 77
2002-09-17 06:46:15 51°13.71 2°55.747 2.5 257 15.2 101830 77
2002-09-17 06:46:21 51°13.718 2°55.739 2.7 262 15.2 101830 77
2002-09-17 06:46:26 51°13.724 2°55.732 2.1 253 15.2 101830 77
2002-09-17 06:46:31 51°13.731 2°55.724 3.1 248 15.2 101830 77
2002-09-17 06:46:36 51°13.737 2°55.716 2.3 251 15.2 101830 77
2002-09-17 06:46:40 51°13.743 2°55.709 2.5 250 15.2 101830 77
2002-09-17 06:46:46 51°13.752 2°55.699 2.6 248 15.2 101830 77
2002-09-17 06:46:50 51°13.758 2°55.692 2.1 256 15.2 101830 77
2002-09-17 06:46:56 51°13.767 2°55.682 3.6 252 15.2 101830 77
2002-09-17 06:47:00 51°13.774 2°55.676 3.2 251 15.2 101830 77
2002-09-17 06:47:06 51°13.785 2°55.666 2.8 254 15.2 101830 77
2002-09-17 06:47:11 51°13.794 2°55.658 2.8 257 15.2 101830 76
2002-09-17 06:47:15 51°13.802 2°55.651 3.6 261 15.2 101830 76
2002-09-17 06:47:21 51°13.814 2°55.641 3.4 258 15.2 101830 77
2002-09-17 06:47:26 51°13.824 2°55.633 3.7 248 15.2 101830 77
2002-09-17 06:47:31 51°13.835 2°55.625 3.7 249 15.3 101830 76
2002-09-17 06:47:35 51°13.844 2°55.619 3.7 258 15.3 101830 76
2002-09-17 06:47:41 51°13.857 2°55.61 3.2 254 15.3 101830 76
2002-09-17 06:47:46 51°13.867 2°55.602 3.1 255 15.3 101830 76
2002-09-17 06:47:51 51°13.878 2°55.594 3.5 252 15.3 101830 76
2002-09-17 06:47:55 51°13.887 2°55.588 3.8 257 15.3 101830 76
2002-09-17 06:48:01 51°13.899 2°55.579 3.5 253 15.3 101830 76
2002-09-17 06:48:06 51°13.91 2°55.572 3.3 248 15.3 101830 76
2002-09-17 06:48:11 51°13.92 2°55.565 3.5 248 15.3 101830 76
2002-09-17 06:48:15 51°13.929 2°55.559 3.3 277 15.3 101830 76
2002-09-17 06:48:21 51°13.941 2°55.551 3.2 243 15.3 101830 76
2002-09-17 06:48:26 51°13.951 2°55.544 4.1 246 15.3 101830 76
2002-09-17 06:48:31 51°13.961 2°55.537 3.1 253 15.3 101830 76
2002-09-17 06:48:35 51°13.969 2°55.531 2.8 253 15.3 101830 76
2002-09-17 06:48:41 51°13.981 2°55.523 2.8 239 15.3 101830 76
2002-09-17 06:48:46 51°13.991 2°55.516 3.5 248 15.3 101830 76
2002-09-17 06:48:50 51°13.998 2°55.51 3.2 242 15.3 101830 76
2002-09-17 06:48:56 51°14.01 2°55.502 3.3 257 15.3 101830 76
2002-09-17 06:49:01 51°14.019 2°55.496 3.1 260 15.3 101830 76
2002-09-17 06:49:06 51°14.029 2°55.489 3.3 239 15.3 101830 76
2002-09-17 06:49:09 51°14.034 2°55.485 3.2 232 15.3 101830 76
2002-09-17 06:49:15 51°14.045 2°55.477 3.1 263 15.3 101830 76
2002-09-17 06:49:21 51°14.056 2°55.469 2.7 266 15.3 101830 76
2002-09-17 06:49:26 51°14.065 2°55.462 2.3 254 15.3 101830 76
2002-09-17 06:49:31 51°14.074 2°55.455 2.7 246 15.3 101830 76
2002-09-17 06:49:35 51°14.081 2°55.449 3.3 257 15.3 101830 76
2002-09-17 06:49:40 51°14.09 2°55.441 2.8 258 15.3 101830 76
2002-09-17 06:49:46 51°14.101 2°55.433 3.2 245 15.3 101830 76
2002-09-17 06:49:50 51°14.109 2°55.427 3.1 264 15.3 101830 76
2002-09-17 06:49:56 51°14.12 2°55.418 2.2 260 15.3 101830 76
2002-09-17 06:50:01 51°14.13 2°55.411 2.9 248 15.3 101830 76
2002-09-17 06:50:06 51°14.139 2°55.403 2.8 250 15.3 101830 76
2002-09-17 06:50:11 51°14.149 2°55.395 3.2 276 15.3 101830 76
2002-09-17 06:50:16 51°14.159 2°55.387 3 264 15.3 101830 76
2002-09-17 06:50:21 51°14.169 2°55.378 3 266 15.3 101830 76
2002-09-17 06:50:26 51°14.178 2°55.369 3 255 15.3 101830 76
2002-09-17 06:50:31 51°14.187 2°55.359 3.2 259 15.3 101830 76
2002-09-17 06:50:36 51°14.196 2°55.349 2.9 251 15.3 101830 76
2002-09-17 06:50:41 51°14.205 2°55.338 2.9 256 15.3 101830 75
2002-09-17 06:50:46 51°14.214 2°55.327 3.2 242 15.3 101830 75
2002-09-17 06:50:50 51°14.221 2°55.318 3.1 253 15.3 101830 75
2002-09-17 06:50:56 51°14.231 2°55.304 3.8 258 15.3 101830 75
2002-09-17 06:51:00 51°14.238 2°55.294 3.6 267 15.3 101840 75
2002-09-17 06:51:06 51°14.248 2°55.278 3.6 268 15.3 101840 75
2002-09-17 06:51:11 51°14.257 2°55.265 4.6 259 15.3 101830 75
2002-09-17 06:51:16 51°14.265 2°55.251 5.1 258 15.3 101830 75
2002-09-17 06:51:21 51°14.274 2°55.236 4.6 258 15.4 101830 75
2002-09-17 06:51:26 51°14.282 2°55.22 4.1 256 15.4 101830 75
2002-09-17 06:51:31 51°14.289 2°55.204 3.9 253 15.3 101830 75
2002-09-17 06:51:36 51°14.297 2°55.187 4.7 259 15.3 101830 75
2002-09-17 06:51:41 51°14.305 2°55.169 4.6 257 15.4 101830 75
2002-09-17 06:51:46 51°14.312 2°55.15 4.5 256 15.4 101830 75
2002-09-17 06:51:51 51°14.318 2°55.131 4.5 257 15.4 101830 75
2002-09-17 06:51:54 51°14.322 2°55.119 5.5 243 15.4 101830 75
2002-09-17 06:52:01 51°14.332 2°55.091 5.3 254 15.4 101830 75
2002-09-17 06:52:06 51°14.339 2°55.071 4.9 255 15.4 101830 75
2002-09-17 06:52:10 51°14.344 2°55.054 5.3 240 15.4 101830 75
2002-09-17 06:52:15 51°14.35 2°55.033 5.4 248 15.4 101830 75
2002-09-17 06:52:21 51°14.358 2°55.008 5.8 254 15.4 101830 75
2002-09-17 06:52:25 51°14.363 2°54.991 6.1 257 15.4 101830 75
2002-09-17 06:52:31 51°14.37 2°54.964 6 257 15.4 101830 75
2002-09-17 06:52:36 51°14.374 2°54.941 6.8 252 15.4 101830 75
2002-09-17 06:52:41 51°14.378 2°54.918 6.5 255 15.4 101830 75
2002-09-17 06:52:46 51°14.381 2°54.894 6.7 252 15.4 101830 75
2002-09-17 06:52:51 51°14.384 2°54.871 6.6 254 15.5 101830 74
2002-09-17 06:52:56 51°14.388 2°54.846 7.7 252 15.5 101830 74
2002-09-17 06:53:01 51°14.39 2°54.822 7.8 253 15.5 101830 74
2002-09-17 06:53:06 51°14.392 2°54.797 7.4 253 15.5 101830 74
2002-09-17 06:53:11 51°14.394 2°54.773 7.3 250 15.5 101830 74
2002-09-17 06:53:16 51°14.396 2°54.749 7.7 255 15.5 101830 74
2002-09-17 06:53:19 51°14.396 2°54.734 7.8 254 15.5 101830 75
2002-09-17 06:53:26 51°14.397 2°54.7 7.9 253 15.5 101830 75
2002-09-17 06:53:31 51°14.398 2°54.675 8.1 257 15.5 101820 75
2002-09-17 06:53:35 51°14.398 2°54.654 8.3 256 15.5 101820 75
2002-09-17 06:53:41 51°14.399 2°54.623 8 257 15.5 101820 74
2002-09-17 06:53:46 51°14.4 2°54.597 8.1 255 15.5 101820 74
2002-09-17 06:53:50 51°14.4 2°54.576 8.5 257 15.5 101830 75
2002-09-17 06:53:56 51°14.4 2°54.544 8.5 256 15.5 101830 75
2002-09-17 06:54:01 51°14.398 2°54.518 8.8 255 15.5 101820 75
2002-09-17 06:54:06 51°14.396 2°54.492 9.2 253 15.5 101820 75
2002-09-17 06:54:11 51°14.391 2°54.466 9.3 254 15.5 101820 75
2002-09-17 06:54:15 51°14.387 2°54.445 8.6 248 15.5 101820 75
2002-09-17 06:54:21 51°14.379 2°54.415 9 245 15.6 101820 75
2002-09-17 06:54:26 51°14.372 2°54.39 9.7 247 15.6 101820 75
2002-09-17 06:54:30 51°14.366 2°54.37 9.4 249 15.5 101830 75
2002-09-17 06:54:37 51°14.354 2°54.335 9.5 251 15.5 101830 75
2002-09-17 06:54:41 51°14.348 2°54.315 9.3 244 15.5 101820 75
2002-09-17 06:54:46 51°14.34 2°54.289 8.5 251 15.5 101820 75
2002-09-17 06:54:51 51°14.332 2°54.264 9.9 248 15.5 101820 74
2002-09-17 06:54:55 51°14.326 2°54.243 9.4 249 15.5 101820 74
2002-09-17 06:55:01 51°14.315 2°54.212 9.7 246 15.5 101820 74
2002-09-17 06:55:06 51°14.307 2°54.186 9.3 250 15.5 101820 74
2002-09-17 06:55:11 51°14.298 2°54.161 9.3 244 15.5 101820 75
2002-09-17 06:55:16 51°14.289 2°54.136 9.4 247 15.5 101820 75
2002-09-17 06:55:21 51°14.281 2°54.11 9.7 246 15.5 101820 75
2002-09-17 06:55:26 51°14.271 2°54.085 9.6 247 15.5 101820 75
2002-09-17 06:55:31 51°14.262 2°54.06 9.9 249 15.5 101820 75
2002-09-17 06:55:36 51°14.253 2°54.035 9.3 247 15.5 101820 75
2002-09-17 06:55:41 51°14.244 2°54.009 8.7 251 15.5 101820 75
2002-09-17 06:55:46 51°14.235 2°53.984 9 245 15.5 101820 75
2002-09-17 06:55:51 51°14.226 2°53.959 9.6 248 15.5 101820 75
2002-09-17 06:55:55 51°14.218 2°53.938 8.9 246 15.5 101820 75
2002-09-17 06:56:01 51°14.207 2°53.908 9.7 249 15.5 101820 75
2002-09-17 06:56:06 51°14.198 2°53.884 9.1 244 15.5 101820 75
2002-09-17 06:56:11 51°14.188 2°53.86 9.6 252 15.5 101820 75
2002-09-17 06:56:16 51°14.179 2°53.834 8.6 248 15.5 101820 75
2002-09-17 06:56:21 51°14.168 2°53.81 9.2 242 15.5 101820 75
2002-09-17 06:56:26 51°14.16 2°53.784 9.2 246 15.5 101820 75
2002-09-17 06:56:30 51°14.151 2°53.766 9.3 243 15.4 101820 75
2002-09-17 06:56:36 51°14.14 2°53.735 9.7 247 15.4 101820 75
2002-09-17 06:56:41 51°14.129 2°53.711 9.1 239 15.5 101830 75
2002-09-17 06:56:46 51°14.12 2°53.686 9.4 249 15.5 101830 75
2002-09-17 06:56:49 51°14.113 2°53.671 9.3 242 15.5 101820 76
2002-09-17 06:56:55 51°14.103 2°53.64 10 248 15.5 101820 76
2002-09-17 06:57:01 51°14.091 2°53.611 9.4 245 15.4 101830 76
2002-09-17 06:57:06 51°14.083 2°53.584 9.6 249 15.4 101830 76
2002-09-17 06:57:11 51°14.072 2°53.56 9.2 241 15.4 101820 75
2002-09-17 06:57:16 51°14.065 2°53.533 9.1 244 15.4 101820 75
2002-09-17 06:57:21 51°14.055 2°53.508 9.6 248 15.4 101820 75
2002-09-17 06:57:26 51°14.046 2°53.481 8.9 244 15.4 101820 75
2002-09-17 06:57:31 51°14.037 2°53.456 9.2 245 15.4 101830 75
2002-09-17 06:57:35 51°14.03 2°53.435 9.1 244 15.4 101830 75
2002-09-17 06:57:41 51°14.019 2°53.403 8.9 244 15.4 101820 75
2002-09-17 06:57:46 51°14.011 2°53.377 8.8 243 15.4 101820 75
2002-09-17 06:57:51 51°14.002 2°53.351 8.7 242 15.4 101820 75
2002-09-17 06:57:56 51°13.993 2°53.326 8.9 246 15.4 101820 75
2002-09-17 06:58:01 51°13.985 2°53.299 9 246 15.4 101820 75
2002-09-17 06:58:06 51°13.976 2°53.274 9.4 243 15.4 101820 75
2002-09-17 06:58:11 51°13.968 2°53.247 9.1 246 15.4 101820 76
2002-09-17 06:58:15 51°13.96 2°53.227 8.2 243 15.4 101820 76
2002-09-17 06:58:21 51°13.95 2°53.196 9.1 246 15.4 101830 76
2002-09-17 06:58:26 51°13.941 2°53.17 8.7 245 15.4 101830 76
2002-09-17 06:58:31 51°13.933 2°53.144 8.2 245 15.4 101820 76
2002-09-17 06:58:36 51°13.924 2°53.119 8.7 245 15.4 101820 76
2002-09-17 06:58:41 51°13.916 2°53.092 8.9 246 15.4 101820 75
2002-09-17 06:58:46 51°13.907 2°53.066 8.3 245 15.4 101820 75
2002-09-17 06:58:51 51°13.898 2°53.04 8.6 245 15.4 101820 75
2002-09-17 06:58:55 51°13.891 2°53.019 8.2 239 15.4 101820 75
2002-09-17 06:59:01 51°13.882 2°52.988 9 251 15.4 101820 75
2002-09-17 06:59:06 51°13.872 2°52.962 8.5 245 15.4 101820 75
2002-09-17 06:59:11 51°13.865 2°52.935 9.4 249 15.4 101820 75
2002-09-17 06:59:17 51°13.854 2°52.905 8.2 242 15.4 101820 75
2002-09-17 06:59:21 51°13.848 2°52.883 8.2 248 15.4 101810 75
2002-09-17 06:59:26 51°13.838 2°52.858 8.2 242 15.4 101810 75
2002-09-17 06:59:31 51°13.83 2°52.831 8.5 253 15.4 101820 75
2002-09-17 06:59:35 51°13.822 2°52.812 7.8 239 15.4 101820 75
2002-09-17 06:59:41 51°13.812 2°52.78 8.6 255 15.5 101820 75
2002-09-17 06:59:46 51°13.803 2°52.755 8.4 244 15.5 101820 75
2002-09-17 06:59:51 51°13.794 2°52.729 8.5 249 15.5 101820 75
2002-09-17 06:59:54 51°13.788 2°52.713 8.6 248 15.5 101820 75
2002-09-17 07:00:01 51°13.776 2°52.677 8.5 245 15.5 101820 75
2002-09-17 07:00:06 51°13.769 2°52.65 9.3 248 15.5 101820 75
2002-09-17 07:00:11 51°13.759 2°52.625 8.9 240 15.5 101830 75
2002-09-17 07:00:14 51°13.755 2°52.609 9 248 15.5 101830 75
2002-09-17 07:00:21 51°13.742 2°52.573 9.4 241 15.5 101830 75
2002-09-17 07:00:26 51°13.734 2°52.546 9.4 252 15.5 101830 75
2002-09-17 07:00:31 51°13.725 2°52.521 9.2 236 15.5 101820 75
2002-09-17 07:00:35 51°13.719 2°52.499 9.3 249 15.5 101820 75
2002-09-17 07:00:41 51°13.708 2°52.468 8.9 241 15.5 101830 75
2002-09-17 07:00:46 51°13.698 2°52.443 8.5 240 15.5 101830 75
2002-09-17 07:00:49 51°13.693 2°52.428 8.1 247 15.5 101830 75
2002-09-17 07:00:58 51°13.678 2°52.381 9.2 240 15.5 101830 75
2002-09-17 07:01:03 51°13.67 2°52.354 9 246 15.5 101830 75
2002-09-17 07:01:08 51°13.661 2°52.328 9.4 246 15.5 101810 75
2002-09-17 07:01:13 51°13.653 2°52.302 9.3 245 15.5 101810 75
2002-09-17 07:01:18 51°13.644 2°52.276 8.6 248 15.5 101820 76
2002-09-17 07:01:23 51°13.635 2°52.25 9.3 247 15.5 101820 76
2002-09-17 07:01:27 51°13.628 2°52.229 8.6 245 15.5 101820 75
2002-09-17 07:01:33 51°13.618 2°52.198 9.3 247 15.5 101820 75
2002-09-17 07:01:38 51°13.609 2°52.171 9.3 242 15.5 101820 76
2002-09-17 07:01:43 51°13.601 2°52.145 9.2 247 15.5 101820 76
2002-09-17 07:01:47 51°13.594 2°52.125 9.2 246 15.5 101830 76
2002-09-17 07:01:53 51°13.584 2°52.093 9.3 245 15.5 101830 76
2002-09-17 07:01:58 51°13.575 2°52.067 9 246 15.5 101820 76
2002-09-17 07:02:03 51°13.566 2°52.041 9.8 247 15.5 101820 76
2002-09-17 07:02:07 51°13.559 2°52.02 8.6 242 15.5 101830 76
2002-09-17 07:02:11 51°13.553 2°51.999 8.7 245 15.5 101830 76
2002-09-17 07:02:18 51°13.54 2°51.963 9.1 247 15.5 101830 76
2002-09-17 07:02:23 51°13.532 2°51.937 8.6 246 15.5 101830 76
2002-09-17 07:02:27 51°13.525 2°51.916 9.1 245 15.5 101820 76
2002-09-17 07:02:33 51°13.515 2°51.884 10 246 15.5 101820 76
2002-09-17 07:02:38 51°13.506 2°51.858 8.7 245 15.5 101830 76
2002-09-17 07:02:43 51°13.497 2°51.832 9.2 246 15.5 101830 76
2002-09-17 07:02:47 51°13.49 2°51.811 8.8 241 15.5 101830 76
2002-09-17 07:02:53 51°13.48 2°51.78 9.7 246 15.5 101830 76
2002-09-17 07:02:58 51°13.471 2°51.753 9.4 243 15.5 101810 76
2002-09-17 07:03:03 51°13.462 2°51.727 9.3 245 15.5 101810 76
2002-09-17 07:03:08 51°13.453 2°51.701 10.4 243 15.5 101820 76
2002-09-17 07:03:14 51°13.443 2°51.669 9.6 242 15.5 101820 76
2002-09-17 07:03:18 51°13.436 2°51.648 9.3 244 15.6 101820 76
2002-09-17 07:03:23 51°13.428 2°51.622 9.6 244 15.6 101820 76
2002-09-17 07:03:27 51°13.421 2°51.6 9.7 246 15.6 101830 76
2002-09-17 07:03:33 51°13.41 2°51.569 9.9 241 15.6 101830 76
2002-09-17 07:03:38 51°13.402 2°51.543 10.1 243 15.6 101820 76
2002-09-17 07:03:43 51°13.393 2°51.517 9.9 241 15.6 101820 76
2002-09-17 07:03:48 51°13.385 2°51.49 9.2 244 15.5 101820 76
2002-09-17 07:03:53 51°13.375 2°51.465 9.4 239 15.5 101820 76
2002-09-17 07:03:58 51°13.368 2°51.438 9.4 247 15.6 101830 76
2002-09-17 07:04:03 51°13.357 2°51.412 9.9 241 15.6 101830 76
2002-09-17 07:04:07 51°13.351 2°51.39 9.1 246 15.6 101820 76
2002-09-17 07:04:13 51°13.341 2°51.36 9.9 246 15.6 101820 76
2002-09-17 07:04:18 51°13.332 2°51.333 9.4 240 15.6 101820 77
2002-09-17 07:04:23 51°13.323 2°51.307 9.4 244 15.6 101820 77
2002-09-17 07:04:26 51°13.318 2°51.291 10.1 239 15.6 101820 77
2002-09-17 07:04:33 51°13.307 2°51.252 10.5 247 15.6 101820 77
2002-09-17 07:04:38 51°13.297 2°51.226 9.7 241 15.6 101820 77
2002-09-17 07:04:43 51°13.289 2°51.198 9.9 248 15.6 101820 77
2002-09-17 07:04:48 51°13.279 2°51.171 10.2 245 15.6 101830 77
2002-09-17 07:04:53 51°13.271 2°51.144 10.3 244 15.6 101830 77
2002-09-17 07:04:58 51°13.261 2°51.116 11 243 15.6 101820 76
2002-09-17 07:05:03 51°13.252 2°51.088 9.9 244 15.6 101820 76
2002-09-17 07:05:07 51°13.244 2°51.067 10.5 244 15.6 101820 76
2002-09-17 07:05:13 51°13.233 2°51.033 10.6 243 15.6 101820 76
2002-09-17 07:05:18 51°13.224 2°51.005 9.6 243 15.6 101810 76
2002-09-17 07:05:22 51°13.217 2°50.983 9.7 244 15.6 101810 76
2002-09-17 07:05:27 51°13.208 2°50.955 9.6 244 15.6 101820 76
2002-09-17 07:05:34 51°13.195 2°50.916 9.8 243 15.6 101820 76
2002-09-17 07:05:38 51°13.188 2°50.892 9.5 245 15.6 101810 76
2002-09-17 07:05:43 51°13.179 2°50.865 9.8 246 15.6 101810 76
2002-09-17 07:05:48 51°13.169 2°50.837 10 242 15.6 101820 76
2002-09-17 07:05:53 51°13.161 2°50.808 9.9 247 15.6 101820 76
2002-09-17 07:05:58 51°13.151 2°50.781 10.2 242 15.6 101810 76
2002-09-17 07:06:02 51°13.144 2°50.757 10.2 248 15.6 101810 76
2002-09-17 07:06:08 51°13.132 2°50.725 10.2 242 15.6 101820 76
2002-09-17 07:06:13 51°13.124 2°50.696 10.2 241 15.6 101820 76
2002-09-17 07:06:18 51°13.114 2°50.669 9.8 242 15.6 101820 76
2002-09-17 07:06:23 51°13.106 2°50.64 10.4 245 15.6 101820 76
2002-09-17 07:06:28 51°13.096 2°50.613 9.5 243 15.6 101820 76
2002-09-17 07:06:33 51°13.087 2°50.584 10.1 242 15.6 101820 76
2002-09-17 07:06:38 51°13.078 2°50.556 10 246 15.6 101820 76
2002-09-17 07:06:43 51°13.069 2°50.529 9.8 243 15.6 101820 76
2002-09-17 07:06:47 51°13.062 2°50.506 10.3 245 15.6 101830 76
2002-09-17 07:06:53 51°13.05 2°50.473 10 244 15.6 101830 76
2002-09-17 07:06:58 51°13.041 2°50.445 10.3 244 15.7 101820 76
2002-09-17 07:07:03 51°13.032 2°50.417 10.1 244 15.7 101820 76
2002-09-17 07:07:07 51°13.025 2°50.395 9.9 244 15.6 101820 76
2002-09-17 07:07:13 51°13.014 2°50.362 9.4 244 15.6 101820 76
2002-09-17 07:07:18 51°13.004 2°50.334 9.9 244 15.6 101820 76
2002-09-17 07:07:23 51°12.995 2°50.307 9.9 244 15.6 101820 76
2002-09-17 07:07:28 51°12.985 2°50.28 10.3 247 15.7 101830 76
2002-09-17 07:07:33 51°12.976 2°50.252 9.5 244 15.7 101830 76
2002-09-17 07:07:38 51°12.967 2°50.224 10.8 248 15.7 101820 76
2002-09-17 07:07:43 51°12.957 2°50.197 9.5 242 15.7 101820 76
2002-09-17 07:07:48 51°12.948 2°50.169 9.9 248 15.7 101820 76
2002-09-17 07:07:53 51°12.939 2°50.142 10.3 242 15.7 101820 76
2002-09-17 07:07:58 51°12.93 2°50.115 10.4 248 15.7 101820 76
2002-09-17 07:08:03 51°12.92 2°50.088 9.2 241 15.7 101820 76
2002-09-17 07:08:07 51°12.913 2°50.065 10.8 248 15.7 101820 76
2002-09-17 07:08:13 51°12.902 2°50.032 10.6 244 15.7 101820 76
2002-09-17 07:08:18 51°12.893 2°50.005 9.8 244 15.6 101810 75
2002-09-17 07:08:23 51°12.884 2°49.977 10.3 247 15.6 101810 75
2002-09-17 07:08:27 51°12.876 2°49.956 9.4 244 15.7 101810 75
2002-09-17 07:08:33 51°12.865 2°49.923 9.9 246 15.7 101810 75
2002-09-17 07:08:38 51°12.855 2°49.895 9.7 244 15.7 101820 75
2002-09-17 07:08:43 51°12.846 2°49.868 9.4 243 15.7 101820 75
2002-09-17 07:08:48 51°12.837 2°49.84 9.6 247 15.7 101820 75
2002-09-17 07:08:53 51°12.827 2°49.813 9.6 245 15.7 101820 75
2002-09-17 07:08:58 51°12.818 2°49.785 9.5 246 15.6 101820 74
2002-09-17 07:09:03 51°12.809 2°49.758 9.5 244 15.6 101820 74
2002-09-17 07:09:07 51°12.801 2°49.736 9.6 243 15.6 101830 74
2002-09-17 07:09:13 51°12.791 2°49.703 9.7 243 15.6 101830 74
2002-09-17 07:09:18 51°12.781 2°49.676 9.3 243 15.6 101820 74
2002-09-17 07:09:23 51°12.772 2°49.649 9.4 243 15.6 101820 74
2002-09-17 07:09:29 51°12.76 2°49.616 10.1 246 15.6 101810 74
2002-09-17 07:09:34 51°12.751 2°49.588 9.3 245 15.6 101810 74
2002-09-17 07:09:38 51°12.744 2°49.566 9.7 248 15.7 101820 74
2002-09-17 07:09:43 51°12.735 2°49.539 9 245 15.7 101820 74
2002-09-17 07:09:47 51°12.728 2°49.517 9.2 248 15.7 101820 74
2002-09-17 07:09:53 51°12.717 2°49.484 9 246 15.7 101820 74
2002-09-17 07:09:58 51°12.708 2°49.457 9.2 246 15.7 101820 74
2002-09-17 07:10:03 51°12.699 2°49.429 9.7 249 15.7 101820 74
2002-09-17 07:10:07 51°12.691 2°49.407 10.1 246 15.7 101830 73
2002-09-17 07:10:13 51°12.681 2°49.373 9.1 241 15.7 101830 73
2002-09-17 07:10:18 51°12.671 2°49.346 9.3 243 15.7 101830 73
2002-09-17 07:10:23 51°12.662 2°49.318 9.6 247 15.7 101830 73
2002-09-17 07:10:27 51°12.654 2°49.296 9.5 241 15.7 101820 74
2002-09-17 07:10:33 51°12.645 2°49.262 9.4 244 15.7 101820 74
2002-09-17 07:10:38 51°12.635 2°49.235 9.2 243 15.7 101820 74
2002-09-17 07:10:43 51°12.627 2°49.206 9.5 242 15.7 101820 74
2002-09-17 07:10:47 51°12.619 2°49.184 9.4 241 15.7 101820 74
2002-09-17 07:10:53 51°12.609 2°49.15 9.5 244 15.7 101820 74
2002-09-17 07:10:58 51°12.6 2°49.122 9.5 241 15.7 101810 73
2002-09-17 07:11:03 51°12.591 2°49.094 10.3 245 15.7 101810 73
2002-09-17 07:11:07 51°12.583 2°49.072 9.9 239 15.7 101820 73
2002-09-17 07:11:13 51°12.574 2°49.038 10 241 15.7 101820 73
2002-09-17 07:11:18 51°12.564 2°49.011 9.1 237 15.8 101820 74
2002-09-17 07:11:23 51°12.555 2°48.983 9.3 243 15.8 101820 74
2002-09-17 07:11:28 51°12.546 2°48.954 8.5 240 15.8 101820 73
2002-09-17 07:11:33 51°12.537 2°48.927 9.8 240 15.8 101820 73
2002-09-17 07:11:38 51°12.528 2°48.899 9.3 247 15.8 101820 73
2002-09-17 07:11:43 51°12.519 2°48.871 9.4 242 15.8 101820 73
2002-09-17 07:11:45 51°12.515 2°48.86 10.1 244 15.8 101810 73
2002-09-17 07:11:53 51°12.5 2°48.816 9.2 241 15.8 101810 73
2002-09-17 07:11:58 51°12.491 2°48.789 8.8 246 15.8 101820 73
2002-09-17 07:12:03 51°12.482 2°48.761 9.4 243 15.8 101820 73
2002-09-17 07:12:07 51°12.474 2°48.739 9.2 239 15.8 101820 72
2002-09-17 07:12:13 51°12.463 2°48.706 9 239 15.8 101820 72
2002-09-17 07:12:18 51°12.454 2°48.679 9.5 246 15.8 101820 72
2002-09-17 07:12:23 51°12.444 2°48.651 8.9 241 15.8 101820 72
2002-09-17 07:12:27 51°12.438 2°48.629 9.1 243 15.8 101820 72
2002-09-17 07:12:33 51°12.426 2°48.596 9.2 245 15.8 101820 72
2002-09-17 07:12:38 51°12.417 2°48.568 9.2 245 15.8 101810 72
2002-09-17 07:12:43 51°12.408 2°48.54 9.7 240 15.8 101810 72
2002-09-17 07:12:47 51°12.402 2°48.518 8.9 246 15.8 101830 72
2002-09-17 07:12:54 51°12.389 2°48.479 9 246 15.8 101830 72
2002-09-17 07:12:58 51°12.381 2°48.457 9.5 240 15.8 101820 73
2002-09-17 07:13:03 51°12.372 2°48.429 9 238 15.8 101820 73
2002-09-17 07:13:08 51°12.363 2°48.402 8.8 241 15.8 101820 72
2002-09-17 07:13:13 51°12.354 2°48.374 8.4 241 15.8 101820 72
2002-09-17 07:13:18 51°12.345 2°48.347 8.8 243 15.8 101820 72
2002-09-17 07:13:23 51°12.336 2°48.319 9.3 246 15.8 101820 72
2002-09-17 07:13:27 51°12.328 2°48.297 8.8 245 15.8 101820 72
2002-09-17 07:13:33 51°12.318 2°48.264 8.4 247 15.8 101820 72
2002-09-17 07:13:38 51°12.308 2°48.237 8.9 243 15.8 101830 72
2002-09-17 07:13:43 51°12.299 2°48.21 9.3 246 15.8 101830 72
2002-09-17 07:13:47 51°12.291 2°48.188 8.7 240 15.8 101830 72
2002-09-17 07:13:53 51°12.281 2°48.154 8.4 252 15.8 101830 72
2002-09-17 07:13:58 51°12.271 2°48.128 9.1 244 15.8 101820 73
2002-09-17 07:14:03 51°12.262 2°48.099 8.8 245 15.8 101820 73
2002-09-17 07:14:07 51°12.255 2°48.078 8.2 246 15.9 101820 72
2002-09-17 07:14:14 51°12.242 2°48.04 9.4 246 15.9 101820 72
2002-09-17 07:14:18 51°12.236 2°48.018 8.6 247 15.9 101820 73
2002-09-17 07:14:23 51°12.225 2°47.991 9.1 240 15.9 101820 73
2002-09-17 07:14:28 51°12.218 2°47.962 8.8 246 15.9 101820 73
2002-09-17 07:14:33 51°12.208 2°47.936 8.8 248 15.9 101820 73
2002-09-17 07:14:38 51°12.199 2°47.907 8.8 247 15.9 101810 72
2002-09-17 07:14:43 51°12.19 2°47.88 9 243 15.9 101810 72
2002-09-17 07:14:46 51°12.184 2°47.864 9.1 247 15.9 101820 72
2002-09-17 07:14:51 51°12.175 2°47.836 8.6 244 15.9 101820 72
2002-09-17 07:14:58 51°12.163 2°47.797 9 246 15.9 101830 73
2002-09-17 07:15:03 51°12.153 2°47.769 8.5 242 15.9 101830 73
2002-09-17 07:15:07 51°12.147 2°47.746 8.3 251 15.9 101830 73
2002-09-17 07:15:14 51°12.134 2°47.708 7.9 245 15.9 101830 73
2002-09-17 07:15:18 51°12.127 2°47.686 7.9 244 15.9 101820 73
2002-09-17 07:15:23 51°12.118 2°47.658 8.2 244 15.9 101820 73
2002-09-17 07:15:28 51°12.108 2°47.631 8.6 243 15.9 101820 72
2002-09-17 07:15:33 51°12.099 2°47.603 9 245 15.9 101820 72
2002-09-17 07:15:38 51°12.09 2°47.576 9.3 245 15.9 101830 71
2002-09-17 07:15:43 51°12.081 2°47.548 8.8 244 15.9 101830 71
2002-09-17 07:15:47 51°12.074 2°47.526 8.8 243 15.9 101830 71
2002-09-17 07:15:53 51°12.063 2°47.492 8.6 247 15.9 101830 71
2002-09-17 07:15:58 51°12.053 2°47.466 8.7 239 15.9 101820 72
2002-09-17 07:16:03 51°12.045 2°47.437 9.6 249 15.9 101820 72
2002-09-17 07:16:07 51°12.037 2°47.415 8.5 239 15.9 101820 71
2002-09-17 07:16:13 51°12.027 2°47.382 9 246 15.9 101820 71
2002-09-17 07:16:18 51°12.018 2°47.354 9 245 15.9 101830 71
2002-09-17 07:16:23 51°12.009 2°47.327 9 245 15.9 101830 71
2002-09-17 07:16:28 51°11.999 2°47.3 9.5 245 15.9 101820 72
2002-09-17 07:16:33 51°11.99 2°47.272 8.5 245 15.9 101820 72
2002-09-17 07:16:38 51°11.981 2°47.245 9.1 243 15.9 101810 73
2002-09-17 07:16:43 51°11.972 2°47.216 9.6 246 15.9 101810 73
2002-09-17 07:16:48 51°11.963 2°47.189 9 242 16 101820 72
2002-09-17 07:16:53 51°11.955 2°47.16 9.9 248 16 101820 72
2002-09-17 07:16:58 51°11.945 2°47.133 8.6 239 16 101830 72
2002-09-17 07:17:03 51°11.937 2°47.105 8.8 248 16 101830 72
2002-09-17 07:17:07 51°11.929 2°47.083 8.6 240 16 101820 73
2002-09-17 07:17:13 51°11.919 2°47.049 9 249 16 101820 73
2002-09-17 07:17:18 51°11.91 2°47.021 9.2 246 16 101820 72
2002-09-17 07:17:23 51°11.901 2°46.994 9.4 245 16 101820 72
2002-09-17 07:17:27 51°11.894 2°46.972 9.4 243 16 101830 73
2002-09-17 07:17:33 51°11.884 2°46.938 9.1 243 16 101830 73
2002-09-17 07:17:38 51°11.874 2°46.911 8.9 244 16 101820 72
2002-09-17 07:17:43 51°11.866 2°46.883 9 247 16 101820 72
2002-09-17 07:17:48 51°11.856 2°46.857 9.6 244 16 101830 72
2002-09-17 07:17:53 51°11.847 2°46.829 9.6 245 16 101830 72
2002-09-17 07:17:58 51°11.838 2°46.801 8.9 240 15.9 101820 73
2002-09-17 07:18:03 51°11.829 2°46.774 9.2 243 15.9 101820 73
2002-09-17 07:18:07 51°11.821 2°46.752 9.7 246 16 101830 73
2002-09-17 07:18:13 51°11.811 2°46.719 9.6 244 16 101830 73
2002-09-17 07:18:18 51°11.801 2°46.692 8.6 248 15.9 101810 72
2002-09-17 07:18:23 51°11.792 2°46.665 8.3 246 15.9 101810 72
2002-09-17 07:18:27 51°11.785 2°46.643 8.7 246 15.9 101820 72
2002-09-17 07:18:34 51°11.772 2°46.605 9.1 241 15.9 101820 72
2002-09-17 07:18:38 51°11.765 2°46.583 9.1 249 16 101820 72
2002-09-17 07:18:43 51°11.755 2°46.556 8.8 245 16 101820 72
2002-09-17 07:18:47 51°11.748 2°46.533 9.2 248 15.9 101820 72
2002-09-17 07:18:53 51°11.738 2°46.501 9.2 248 15.9 101820 72
2002-09-17 07:18:58 51°11.727 2°46.474 9.2 243 15.9 101810 71
2002-09-17 07:19:03 51°11.719 2°46.446 8.7 246 15.9 101810 71
2002-09-17 07:19:07 51°11.712 2°46.424 9 244 15.9 101830 71
2002-09-17 07:19:13 51°11.701 2°46.391 9.1 244 15.9 101830 71
2002-09-17 07:19:18 51°11.692 2°46.363 8.2 248 15.9 101820 72
2002-09-17 07:19:23 51°11.683 2°46.336 8.3 243 15.9 101820 72
2002-09-17 07:19:27 51°11.675 2°46.315 8.4 245 15.9 101810 72
2002-09-17 07:19:33 51°11.664 2°46.281 8.5 247 15.9 101810 72
2002-09-17 07:19:38 51°11.655 2°46.254 8.7 242 15.9 101820 72
2002-09-17 07:19:43 51°11.646 2°46.226 8.7 245 15.9 101820 72
2002-09-17 07:19:47 51°11.639 2°46.205 8.1 244 15.9 101820 72
2002-09-17 07:19:53 51°11.627 2°46.172 8 246 15.9 101820 72
2002-09-17 07:19:58 51°11.618 2°46.144 9.1 244 15.9 101820 72
2002-09-17 07:20:03 51°11.61 2°46.116 8.8 248 15.9 101820 72
2002-09-17 07:20:06 51°11.604 2°46.1 8.6 244 15.9 101820 72
2002-09-17 07:20:13 51°11.593 2°46.06 8.5 241 15.9 101820 72
2002-09-17 07:20:18 51°11.584 2°46.032 8.5 246 15.9 101820 72
2002-09-17 07:20:23 51°11.577 2°46.004 8.5 251 15.9 101820 72
2002-09-17 07:20:28 51°11.568 2°45.976 9 241 15.9 101820 72
2002-09-17 07:20:33 51°11.562 2°45.947 9.2 244 15.9 101820 72
2002-09-17 07:20:38 51°11.553 2°45.919 7.8 244 15.9 101820 72
2002-09-17 07:20:43 51°11.546 2°45.89 8.7 244 15.9 101820 72
2002-09-17 07:20:47 51°11.54 2°45.867 9.3 247 15.9 101820 72
2002-09-17 07:20:53 51°11.53 2°45.833 9.4 243 15.9 101820 72
2002-09-17 07:20:58 51°11.523 2°45.804 9 248 15.9 101810 72
2002-09-17 07:21:02 51°11.516 2°45.782 8.5 244 15.9 101810 72
2002-09-17 07:21:08 51°11.507 2°45.747 8.7 244 15.9 101820 72
2002-09-17 07:21:14 51°11.498 2°45.713 8.2 241 15.9 101820 72
2002-09-17 07:21:18 51°11.491 2°45.69 8.5 243 15.9 101820 72
2002-09-17 07:21:23 51°11.484 2°45.662 8.7 246 15.9 101820 72
2002-09-17 07:21:27 51°11.477 2°45.639 8.5 246 16 101830 72
2002-09-17 07:21:33 51°11.468 2°45.605 8.3 240 16 101830 72
2002-09-17 07:21:38 51°11.461 2°45.576 9.6 250 15.9 101820 72
2002-09-17 07:21:43 51°11.452 2°45.547 8.4 245 15.9 101820 72
2002-09-17 07:21:47 51°11.447 2°45.524 9 249 16 101820 72
2002-09-17 07:21:53 51°11.437 2°45.49 8.1 239 16 101820 72
2002-09-17 07:21:57 51°11.432 2°45.467 8.1 251 16 101820 72
2002-09-17 07:22:03 51°11.421 2°45.433 8.7 246 16 101820 72
2002-09-17 07:22:07 51°11.416 2°45.409 8 244 16 101820 72
2002-09-17 07:22:13 51°11.406 2°45.375 7.9 248 16 101820 72
2002-09-17 07:22:18 51°11.399 2°45.346 8.6 248 16 101820 72
2002-09-17 07:22:23 51°11.391 2°45.318 8.2 245 16 101820 72
2002-09-17 07:22:26 51°11.386 2°45.301 8.1 246 16 101830 72
2002-09-17 07:22:33 51°11.375 2°45.26 8.5 247 16 101830 72
2002-09-17 07:22:38 51°11.367 2°45.231 8.2 243 16 101820 72
2002-09-17 07:22:43 51°11.36 2°45.203 8.8 248 16 101820 72
2002-09-17 07:22:47 51°11.354 2°45.18 8.7 246 16 101820 72
2002-09-17 07:22:53 51°11.344 2°45.145 8.5 246 16 101820 72
2002-09-17 07:22:58 51°11.337 2°45.116 8.7 249 16 101820 72
2002-09-17 07:23:03 51°11.329 2°45.087 8.2 252 16 101820 72
2002-09-17 07:23:07 51°11.322 2°45.065 9.1 250 16 101820 72
2002-09-17 07:23:14 51°11.312 2°45.024 8.6 250 16 101820 72
2002-09-17 07:23:18 51°11.306 2°45.001 9.1 252 16 101820 72
2002-09-17 07:23:23 51°11.298 2°44.972 8.4 246 16 101820 72
2002-09-17 07:23:26 51°11.294 2°44.955 9.1 248 16 101830 72
2002-09-17 07:23:33 51°11.283 2°44.915 7.7 250 16 101830 72
2002-09-17 07:23:38 51°11.274 2°44.887 8 237 16 101830 73
2002-09-17 07:23:42 51°11.269 2°44.863 7.8 249 16 101830 73
2002-09-17 07:23:48 51°11.259 2°44.829 7.3 245 16 101810 72
2002-09-17 07:23:52 51°11.254 2°44.807 7.8 251 16 101810 72
2002-09-17 07:23:58 51°11.243 2°44.773 7 244 16 101820 71
2002-09-17 07:24:03 51°11.236 2°44.744 6.7 249 16 101820 71
2002-09-17 07:24:08 51°11.227 2°44.715 5.8 229 16 101820 71
2002-09-17 07:24:13 51°11.221 2°44.686 6.1 236 16 101820 71
2002-09-17 07:24:18 51°11.213 2°44.658 6.3 244 16 101820 71
2002-09-17 07:24:23 51°11.205 2°44.63 6.9 242 16 101820 71
2002-09-17 07:24:27 51°11.2 2°44.606 8.2 245 16 101830 71
2002-09-17 07:24:33 51°11.19 2°44.572 7.1 251 16 101830 71
2002-09-17 07:24:38 51°11.183 2°44.544 6.8 250 15.9 101830 70
2002-09-17 07:24:43 51°11.176 2°44.515 7.3 253 15.9 101830 70
2002-09-17 07:24:47 51°11.169 2°44.492 7.6 244 16 101830 70
2002-09-17 07:24:53 51°11.161 2°44.458 8 248 16 101830 70
2002-09-17 07:24:58 51°11.152 2°44.43 8 245 16 101830 70
2002-09-17 07:25:03 51°11.145 2°44.401 8 249 16 101830 70
2002-09-17 07:25:07 51°11.139 2°44.379 7.8 245 16 101830 70
2002-09-17 07:25:13 51°11.129 2°44.345 8.2 246 16 101830 70
2002-09-17 07:25:18 51°11.121 2°44.317 8.4 249 16 101830 71
2002-09-17 07:25:23 51°11.114 2°44.289 8.3 245 16 101830 71
2002-09-17 07:25:27 51°11.108 2°44.266 8.7 250 16 101830 71
2002-09-17 07:25:33 51°11.099 2°44.232 8.3 252 16 101830 71
2002-09-17 07:25:38 51°11.091 2°44.205 7.1 251 16 101820 71
2002-09-17 07:25:43 51°11.083 2°44.176 8 249 16 101820 71
2002-09-17 07:25:46 51°11.078 2°44.16 7.7 249 16 101830 70
2002-09-17 07:25:53 51°11.067 2°44.121 7.7 248 16 101830 70
2002-09-17 07:25:58 51°11.059 2°44.092 7.7 250 16 101830 71
2002-09-17 07:26:03 51°11.051 2°44.064 8.1 251 16 101830 71
2002-09-17 07:26:08 51°11.043 2°44.036 8.1 251 16 101830 71
2002-09-17 07:26:14 51°11.034 2°44.002 8.2 253 16 101830 71
2002-09-17 07:26:18 51°11.028 2°43.98 8.5 254 16 101830 71
2002-09-17 07:26:23 51°11.019 2°43.951 8.2 246 16 101830 71
2002-09-17 07:26:27 51°11.014 2°43.927 8.4 257 16.1 101830 71
2002-09-17 07:26:33 51°11.004 2°43.894 7.2 245 16.1 101830 71
2002-09-17 07:26:38 51°10.997 2°43.865 8.3 256 16.1 101830 71
2002-09-17 07:26:43 51°10.989 2°43.837 8 250 16.1 101830 71
2002-09-17 07:26:47 51°10.983 2°43.814 8.3 259 16.1 101820 71
2002-09-17 07:26:53 51°10.974 2°43.779 8.3 250 16.1 101820 71
2002-09-17 07:26:58 51°10.966 2°43.752 7.8 250 16.1 101830 71
2002-09-17 07:27:03 51°10.959 2°43.723 8.6 246 16.1 101830 71
2002-09-17 07:27:06 51°10.954 2°43.706 8 249 16.1 101820 71
2002-09-17 07:27:13 51°10.943 2°43.666 7.4 246 16.1 101820 71
2002-09-17 07:27:18 51°10.935 2°43.638 7.1 251 16.1 101820 71
2002-09-17 07:27:23 51°10.928 2°43.609 6.8 252 16.1 101820 71
2002-09-17 07:27:26 51°10.924 2°43.592 6.8 253 16.1 101820 71
2002-09-17 07:27:33 51°10.914 2°43.552 7.8 248 16.1 101820 71
2002-09-17 07:27:37 51°10.908 2°43.528 7.6 244 16.1 101830 70
2002-09-17 07:27:42 51°10.902 2°43.499 7.6 249 16.1 101830 70
2002-09-17 07:27:47 51°10.896 2°43.47 7.4 251 16.1 101820 69
2002-09-17 07:27:52 51°10.889 2°43.442 7.4 243 16.1 101820 69
2002-09-17 07:27:58 51°10.882 2°43.405 7.6 252 16 101830 69
2002-09-17 07:28:03 51°10.876 2°43.376 7.4 253 16 101830 69
2002-09-17 07:28:07 51°10.87 2°43.353 7.2 242 16.1 101830 69
2002-09-17 07:28:13 51°10.864 2°43.317 7.6 249 16.1 101830 69
2002-09-17 07:28:18 51°10.857 2°43.288 7.6 250 16.1 101830 69
2002-09-17 07:28:23 51°10.851 2°43.259 7.5 250 16.1 101830 69
2002-09-17 07:28:28 51°10.845 2°43.229 7.5 244 16.1 101830 70
2002-09-17 07:28:33 51°10.839 2°43.2 7.4 249 16.1 101830 70
2002-09-17 07:28:38 51°10.832 2°43.171 7.4 248 16.1 101830 70
2002-09-17 07:28:43 51°10.825 2°43.142 7.2 242 16.1 101830 70
2002-09-17 07:28:47 51°10.821 2°43.118 7.2 250 16.1 101840 69
2002-09-17 07:28:53 51°10.812 2°43.083 7.3 247 16.1 101840 69
2002-09-17 07:28:58 51°10.806 2°43.054 7.4 249 16.1 101830 69
2002-09-17 07:29:02 51°10.801 2°43.031 8 252 16.1 101830 69
2002-09-17 07:29:07 51°10.794 2°43.002 8 246 16.1 101820 68
2002-09-17 07:29:14 51°10.785 2°42.96 7.4 253 16.1 101820 68
2002-09-17 07:29:18 51°10.78 2°42.937 7.6 247 16.1 101830 69
2002-09-17 07:29:23 51°10.773 2°42.908 7.6 249 16.1 101830 69
2002-09-17 07:29:27 51°10.768 2°42.884 8 251 16.2 101830 70
2002-09-17 07:29:33 51°10.76 2°42.849 7.1 245 16.2 101830 70
2002-09-17 07:29:38 51°10.754 2°42.82 7.4 250 16.1 101830 70
2002-09-17 07:29:43 51°10.747 2°42.791 7 240 16.1 101830 70
2002-09-17 07:29:48 51°10.741 2°42.761 7.8 255 16.2 101830 70
2002-09-17 07:29:53 51°10.734 2°42.733 6.7 244 16.2 101830 70
2002-09-17 07:29:58 51°10.728 2°42.703 7.3 250 16.2 101830 69
2002-09-17 07:30:03 51°10.72 2°42.675 7.2 239 16.2 101830 69
2002-09-17 07:30:08 51°10.715 2°42.645 7 256 16.2 101820 69
2002-09-17 07:30:13 51°10.707 2°42.617 6.4 246 16.2 101820 69
2002-09-17 07:30:18 51°10.701 2°42.588 7.1 253 16.1 101830 68
2002-09-17 07:30:23 51°10.695 2°42.559 7.5 255 16.1 101830 68
2002-09-17 07:30:28 51°10.688 2°42.531 7.4 250 16.1 101830 68
2002-09-17 07:30:33 51°10.681 2°42.502 6.4 250 16.1 101830 68
2002-09-17 07:30:38 51°10.675 2°42.473 6.4 254 16.1 101840 69
2002-09-17 07:30:43 51°10.668 2°42.444 7.4 248 16.1 101840 69
2002-09-17 07:30:48 51°10.662 2°42.414 7 251 16.2 101830 69
2002-09-17 07:30:50 51°10.66 2°42.403 7.3 246 16.2 101830 69
2002-09-17 07:30:58 51°10.65 2°42.356 7.5 259 16.1 101820 68
2002-09-17 07:31:03 51°10.643 2°42.327 7.1 258 16.1 101820 68
2002-09-17 07:31:07 51°10.638 2°42.304 6 250 16.1 101830 67
2002-09-17 07:31:13 51°10.63 2°42.269 7 250 16.1 101830 67
2002-09-17 07:31:18 51°10.624 2°42.24 6.9 250 16.1 101830 67
2002-09-17 07:31:23 51°10.618 2°42.211 7 249 16.1 101830 67
2002-09-17 07:31:28 51°10.611 2°42.182 6 248 16.2 101830 68
2002-09-17 07:31:34 51°10.603 2°42.147 6.8 248 16.2 101830 68
2002-09-17 07:31:38 51°10.599 2°42.123 6.9 255 16.2 101830 67
2002-09-17 07:31:43 51°10.593 2°42.094 6.2 250 16.2 101830 67
2002-09-17 07:31:47 51°10.588 2°42.071 6.7 255 16.1 101830 67
2002-09-17 07:31:53 51°10.581 2°42.036 5.8 249 16.1 101830 67
2002-09-17 07:31:58 51°10.575 2°42.006 6.8 260 16.1 101830 66
2002-09-17 07:32:03 51°10.569 2°41.977 7 254 16.1 101830 66
2002-09-17 07:32:07 51°10.564 2°41.954 7.2 250 16.1 101830 66
2002-09-17 07:32:13 51°10.556 2°41.919 7.7 256 16.1 101830 66
2002-09-17 07:32:18 51°10.55 2°41.89 7.5 254 16.2 101830 67
2002-09-17 07:32:23 51°10.543 2°41.861 7.4 250 16.2 101830 67
2002-09-17 07:32:28 51°10.536 2°41.832 7.2 255 16.2 101830 68
2002-09-17 07:32:33 51°10.53 2°41.803 7.6 253 16.2 101830 68
2002-09-17 07:32:38 51°10.523 2°41.774 6.7 253 16.2 101830 67
2002-09-17 07:32:43 51°10.516 2°41.745 6.9 251 16.2 101830 67
2002-09-17 07:32:48 51°10.509 2°41.716 6.5 258 16.2 101830 66
2002-09-17 07:32:53 51°10.502 2°41.688 6.2 249 16.2 101830 66
2002-09-17 07:32:58 51°10.495 2°41.66 6.9 255 16.2 101830 67
2002-09-17 07:33:03 51°10.488 2°41.631 6.9 257 16.2 101830 67
2002-09-17 07:33:07 51°10.482 2°41.608 7 264 16.2 101830 67
2002-09-17 07:33:13 51°10.473 2°41.574 7.3 261 16.2 101830 67
2002-09-17 07:33:18 51°10.467 2°41.545 6.8 259 16.2 101830 65
2002-09-17 07:33:23 51°10.46 2°41.516 7 262 16.2 101830 65
2002-09-17 07:33:27 51°10.455 2°41.493 6.8 259 16.2 101830 67
2002-09-17 07:33:33 51°10.446 2°41.459 6.9 264 16.2 101830 67
2002-09-17 07:33:38 51°10.439 2°41.431 7.2 257 16.3 101830 68
2002-09-17 07:33:43 51°10.433 2°41.402 7.5 259 16.3 101830 68
2002-09-17 07:33:47 51°10.427 2°41.379 7.6 257 16.3 101830 68
2002-09-17 07:33:53 51°10.419 2°41.344 6.7 256 16.3 101830 68
2002-09-17 07:33:58 51°10.413 2°41.316 7.4 263 16.3 101830 68
2002-09-17 07:34:02 51°10.407 2°41.293 7.4 263 16.3 101830 68
2002-09-17 07:34:07 51°10.401 2°41.264 7.2 256 16.3 101830 67
2002-09-17 07:34:13 51°10.393 2°41.229 6.9 256 16.3 101830 67
2002-09-17 07:34:18 51°10.386 2°41.201 6.6 251 16.3 101830 67
2002-09-17 07:34:23 51°10.38 2°41.172 6.4 256 16.3 101830 67
2002-09-17 07:34:27 51°10.374 2°41.149 6.5 256 16.3 101830 67
2002-09-17 07:34:33 51°10.367 2°41.114 6.8 257 16.3 101830 67
2002-09-17 07:34:38 51°10.362 2°41.085 6.9 267 16.2 101830 66
2002-09-17 07:34:42 51°10.356 2°41.062 6.5 254 16.2 101830 66
2002-09-17 07:34:47 51°10.351 2°41.033 6.9 266 16.3 101830 67
2002-09-17 07:34:53 51°10.344 2°40.998 6.3 262 16.3 101830 67
2002-09-17 07:34:58 51°10.338 2°40.969 6.4 261 16.3 101820 67
2002-09-17 07:35:03 51°10.332 2°40.94 6.2 264 16.3 101820 67
2002-09-17 07:35:08 51°10.326 2°40.911 6.3 260 16.3 101830 68
2002-09-17 07:35:11 51°10.323 2°40.893 6.2 263 16.3 101830 68
2002-09-17 07:35:18 51°10.315 2°40.852 6.5 268 16.3 101830 67
2002-09-17 07:35:23 51°10.309 2°40.823 5.7 260 16.3 101830 67
2002-09-17 07:35:27 51°10.305 2°40.799 6.7 269 16.3 101840 68
2002-09-17 07:35:33 51°10.298 2°40.765 6.5 252 16.3 101840 68
2002-09-17 07:35:38 51°10.292 2°40.736 6 252 16.3 101830 68
2002-09-17 07:35:43 51°10.286 2°40.706 6.6 245 16.3 101830 68
2002-09-17 07:35:47 51°10.282 2°40.682 5 236 16.4 101840 68
2002-09-17 07:35:53 51°10.275 2°40.648 4.7 227 16.4 101840 68
2002-09-17 07:35:58 51°10.269 2°40.619 5.3 223 16.3 101830 68
2002-09-17 07:36:03 51°10.263 2°40.59 5.2 226 16.3 101830 68
2002-09-17 07:36:08 51°10.258 2°40.56 4.8 236 16.4 101830 68
2002-09-17 07:36:13 51°10.252 2°40.531 5.3 215 16.4 101830 68
2002-09-17 07:36:18 51°10.246 2°40.502 4.9 213 16.3 101840 67
2002-09-17 07:36:23 51°10.242 2°40.472 4.9 226 16.3 101840 67
2002-09-17 07:36:28 51°10.235 2°40.444 5.3 222 16.3 101840 66
2002-09-17 07:36:33 51°10.23 2°40.414 5.3 230 16.3 101840 66
2002-09-17 07:36:38 51°10.224 2°40.385 5.5 214 16.3 101840 65
2002-09-17 07:36:42 51°10.22 2°40.361 5.7 223 16.3 101840 65
2002-09-17 07:36:47 51°10.214 2°40.332 6.3 207 16.3 101840 64
2002-09-17 07:36:54 51°10.207 2°40.291 5.2 213 16.3 101840 64
2002-09-17 07:36:58 51°10.202 2°40.268 5.9 209 16.3 101840 63
2002-09-17 07:37:03 51°10.197 2°40.239 5 214 16.3 101840 63
2002-09-17 07:37:08 51°10.191 2°40.209 5.2 215 16.3 101840 62
2002-09-17 07:37:13 51°10.186 2°40.18 5.8 212 16.3 101840 62
2002-09-17 07:37:18 51°10.179 2°40.152 5.6 202 16.3 101840 61
2002-09-17 07:37:22 51°10.175 2°40.129 5 208 16.3 101840 61
2002-09-17 07:37:28 51°10.168 2°40.094 5.5 210 16.3 101840 61
2002-09-17 07:37:33 51°10.162 2°40.065 5.4 208 16.3 101840 61
2002-09-17 07:37:38 51°10.157 2°40.035 4.9 207 16.3 101850 61
2002-09-17 07:37:43 51°10.151 2°40.007 5.1 204 16.3 101850 61
2002-09-17 07:37:47 51°10.146 2°39.983 5.7 198 16.3 101830 59
2002-09-17 07:37:53 51°10.139 2°39.949 5.5 200 16.3 101830 59
2002-09-17 07:37:58 51°10.133 2°39.92 5.1 195 16.3 101840 60
2002-09-17 07:38:03 51°10.127 2°39.891 5.6 197 16.3 101840 60
2002-09-17 07:38:08 51°10.12 2°39.862 5.4 199 16.3 101840 60
2002-09-17 07:38:13 51°10.113 2°39.834 5.1 200 16.3 101840 60
2002-09-17 07:38:18 51°10.106 2°39.805 5.3 212 16.3 101840 61
2002-09-17 07:38:23 51°10.099 2°39.777 5.3 217 16.3 101840 61
2002-09-17 07:38:28 51°10.092 2°39.749 5.9 209 16.3 101840 60
2002-09-17 07:38:33 51°10.085 2°39.72 5.5 210 16.3 101840 60
2002-09-17 07:38:38 51°10.077 2°39.692 5.9 211 16.4 101840 59
2002-09-17 07:38:43 51°10.069 2°39.664 6 219 16.4 101840 59
2002-09-17 07:38:47 51°10.063 2°39.642 6.6 203 16.4 101840 59
2002-09-17 07:38:53 51°10.054 2°39.608 6 217 16.4 101840 59
2002-09-17 07:38:58 51°10.046 2°39.581 6.2 205 16.4 101840 59
2002-09-17 07:39:03 51°10.038 2°39.552 5.7 212 16.4 101840 59
2002-09-17 07:39:07 51°10.032 2°39.53 5.6 216 16.4 101840 61
2002-09-17 07:39:13 51°10.022 2°39.497 5.8 219 16.4 101840 61
2002-09-17 07:39:18 51°10.015 2°39.468 5.9 218 16.4 101840 60
2002-09-17 07:39:23 51°10.006 2°39.441 5.8 214 16.4 101840 60
2002-09-17 07:39:28 51°9.999 2°39.412 5.4 215 16.4 101840 59
2002-09-17 07:39:33 51°9.992 2°39.384 5.1 212 16.4 101840 59
2002-09-17 07:39:38 51°9.985 2°39.356 5 214 16.5 101830 58
2002-09-17 07:39:43 51°9.976 2°39.328 6.2 209 16.5 101830 58
2002-09-17 07:39:48 51°9.97 2°39.299 5.6 210 16.5 101840 56
2002-09-17 07:39:53 51°9.962 2°39.271 6.2 206 16.5 101840 56
2002-09-17 07:39:58 51°9.955 2°39.243 6.4 203 16.5 101840 58
2002-09-17 07:40:02 51°9.949 2°39.22 5.8 207 16.5 101840 58
2002-09-17 07:40:08 51°9.94 2°39.186 6.3 214 16.5 101840 58
2002-09-17 07:40:13 51°9.933 2°39.158 5.6 200 16.5 101840 58
2002-09-17 07:40:18 51°9.925 2°39.13 5.4 210 16.5 101840 59
2002-09-17 07:40:23 51°9.918 2°39.101 5.5 214 16.5 101840 59
2002-09-17 07:40:28 51°9.91 2°39.073 5.3 209 16.5 101840 58
2002-09-17 07:40:33 51°9.903 2°39.044 4.6 212 16.5 101840 58
2002-09-17 07:40:38 51°9.895 2°39.017 4.9 202 16.6 101840 57
2002-09-17 07:40:43 51°9.888 2°38.988 4.8 209 16.6 101840 57
2002-09-17 07:40:47 51°9.882 2°38.966 5.1 201 16.6 101840 56
2002-09-17 07:40:53 51°9.874 2°38.931 4.4 211 16.6 101840 56
2002-09-17 07:40:58 51°9.866 2°38.904 4.5 207 16.5 101840 55
2002-09-17 07:41:03 51°9.859 2°38.875 5.4 210 16.5 101840 55
2002-09-17 07:41:07 51°9.853 2°38.853 5.2 203 16.6 101840 55
2002-09-17 07:41:13 51°9.844 2°38.819 5.4 206 16.6 101840 55
2002-09-17 07:41:18 51°9.836 2°38.791 5.5 207 16.6 101840 57
2002-09-17 07:41:23 51°9.829 2°38.762 5.3 210 16.6 101840 57
2002-09-17 07:41:28 51°9.822 2°38.734 5.1 209 16.6 101840 56
2002-09-17 07:41:33 51°9.815 2°38.707 4.7 206 16.6 101840 56
2002-09-17 07:41:38 51°9.808 2°38.678 4.9 209 16.6 101840 56
2002-09-17 07:41:43 51°9.8 2°38.65 4.6 205 16.6 101840 56
2002-09-17 07:41:48 51°9.792 2°38.623 5.3 214 16.6 101840 57
2002-09-17 07:41:53 51°9.784 2°38.595 5.6 208 16.6 101840 57
2002-09-17 07:41:58 51°9.776 2°38.567 5.2 215 16.7 101850 56
2002-09-17 07:42:03 51°9.768 2°38.54 5.8 209 16.7 101850 56
2002-09-17 07:42:07 51°9.763 2°38.517 5.2 209 16.7 101840 55
2002-09-17 07:42:13 51°9.753 2°38.483 5.8 209 16.7 101840 55
2002-09-17 07:42:18 51°9.746 2°38.455 5.5 210 16.7 101840 57
2002-09-17 07:42:23 51°9.738 2°38.427 5.6 209 16.7 101840 57
2002-09-17 07:42:27 51°9.732 2°38.405 5.8 208 16.7 101840 55
2002-09-17 07:42:33 51°9.723 2°38.371 6.3 201 16.7 101840 55
2002-09-17 07:42:38 51°9.716 2°38.343 5.6 203 16.7 101840 55
2002-09-17 07:42:42 51°9.71 2°38.32 5.7 202 16.7 101840 55
2002-09-17 07:42:47 51°9.703 2°38.292 5.5 204 16.7 101840 55
2002-09-17 07:42:53 51°9.694 2°38.259 5.5 205 16.7 101840 55
2002-09-17 07:42:58 51°9.686 2°38.231 6.3 210 16.7 101840 54
2002-09-17 07:43:03 51°9.678 2°38.203 7 201 16.7 101840 54
2002-09-17 07:43:08 51°9.671 2°38.175 6.3 215 16.7 101840 56
2002-09-17 07:43:12 51°9.664 2°38.154 5.9 213 16.7 101840 56
2002-09-17 07:43:18 51°9.655 2°38.12 6 212 16.7 101850 58
2002-09-17 07:43:23 51°9.647 2°38.092 6.7 211 16.7 101850 58
2002-09-17 07:43:28 51°9.64 2°38.064 6.7 211 16.7 101840 57
2002-09-17 07:43:33 51°9.633 2°38.037 6.1 211 16.7 101840 57
2002-09-17 07:43:38 51°9.625 2°38.009 6.8 210 16.8 101850 55
2002-09-17 07:43:43 51°9.618 2°37.981 6 210 16.8 101850 55
2002-09-17 07:43:48 51°9.61 2°37.953 5.9 212 16.8 101840 54
2002-09-17 07:43:54 51°9.601 2°37.92 5.5 214 16.8 101840 54
2002-09-17 07:43:58 51°9.595 2°37.898 5.2 213 16.7 101850 54
2002-09-17 07:44:03 51°9.587 2°37.87 4.8 212 16.7 101850 54
2002-09-17 07:44:07 51°9.581 2°37.848 4.8 223 16.7 101850 55
2002-09-17 07:44:13 51°9.571 2°37.815 5 221 16.7 101850 55
2002-09-17 07:44:18 51°9.564 2°37.786 4.8 219 16.8 101850 54
2002-09-17 07:44:23 51°9.556 2°37.759 5.5 213 16.8 101850 54
2002-09-17 07:44:27 51°9.55 2°37.737 5.2 216 16.8 101850 54
2002-09-17 07:44:33 51°9.54 2°37.704 5 211 16.8 101850 54
2002-09-17 07:44:38 51°9.533 2°37.676 4.9 212 16.8 101850 53
2002-09-17 07:44:43 51°9.524 2°37.648 4.7 212 16.8 101850 53
2002-09-17 07:44:47 51°9.519 2°37.626 4.9 217 16.8 101850 55
2002-09-17 07:44:53 51°9.509 2°37.592 5.6 205 16.8 101850 55
2002-09-17 07:44:58 51°9.502 2°37.564 5.3 211 16.8 101850 53
2002-09-17 07:45:02 51°9.495 2°37.543 5.9 209 16.8 101850 53
2002-09-17 07:45:07 51°9.488 2°37.514 5.2 212 16.8 101850 54
2002-09-17 07:45:13 51°9.479 2°37.481 5.2 208 16.8 101850 54
2002-09-17 07:45:18 51°9.471 2°37.454 5.1 213 16.8 101850 56
2002-09-17 07:45:23 51°9.463 2°37.426 5.3 213 16.8 101850 56
2002-09-17 07:45:26 51°9.459 2°37.409 4.7 214 16.8 101850 54
2002-09-17 07:45:33 51°9.448 2°37.37 5.4 211 16.8 101850 54
2002-09-17 07:45:37 51°9.442 2°37.347 5.5 220 16.8 101850 53
2002-09-17 07:45:43 51°9.432 2°37.314 5.4 208 16.8 101850 53
2002-09-17 07:45:48 51°9.425 2°37.285 4.9 214 16.8 101850 53
2002-09-17 07:45:53 51°9.417 2°37.258 5.4 207 16.8 101850 53
2002-09-17 07:45:58 51°9.41 2°37.229 5.3 206 16.8 101840 55
2002-09-17 07:46:03 51°9.402 2°37.2 5 204 16.8 101840 55
2002-09-17 07:46:07 51°9.397 2°37.178 4.2 217 16.8 101850 54
2002-09-17 07:46:14 51°9.385 2°37.139 4.3 217 16.8 101850 54
2002-09-17 07:46:18 51°9.38 2°37.116 4.5 215 16.8 101850 53
2002-09-17 07:46:23 51°9.372 2°37.088 4.7 211 16.8 101850 53
2002-09-17 07:46:27 51°9.366 2°37.066 5.2 199 16.8 101840 52
2002-09-17 07:46:33 51°9.357 2°37.032 5.1 214 16.8 101840 52
2002-09-17 07:46:38 51°9.349 2°37.004 5.4 200 16.8 101850 54
2002-09-17 07:46:42 51°9.344 2°36.981 5.7 209 16.8 101850 54
2002-09-17 07:46:47 51°9.336 2°36.954 5.7 199 16.8 101850 56
2002-09-17 07:46:53 51°9.327 2°36.921 5.5 207 16.8 101850 56
2002-09-17 07:46:58 51°9.319 2°36.893 5.8 203 16.8 101850 55
2002-09-17 07:47:03 51°9.312 2°36.865 5.6 208 16.8 101850 55
2002-09-17 07:47:08 51°9.303 2°36.838 4.8 208 16.8 101850 55
2002-09-17 07:47:14 51°9.294 2°36.804 5.7 203 16.8 101850 55
2002-09-17 07:47:18 51°9.288 2°36.782 4.9 205 16.8 101840 55
2002-09-17 07:47:23 51°9.28 2°36.754 5.9 206 16.8 101840 55
2002-09-17 07:47:27 51°9.274 2°36.731 4.7 213 16.8 101840 53
2002-09-17 07:47:33 51°9.265 2°36.697 4.7 210 16.8 101840 53
2002-09-17 07:47:38 51°9.257 2°36.669 5.1 203 16.8 101840 54
2002-09-17 07:47:43 51°9.251 2°36.64 4.8 214 16.8 101840 54
2002-09-17 07:47:47 51°9.244 2°36.618 5.3 209 16.9 101840 56
2002-09-17 07:47:54 51°9.234 2°36.578 4.8 203 16.9 101840 56
2002-09-17 07:47:58 51°9.228 2°36.556 4.5 212 16.9 101850 54
2002-09-17 07:48:03 51°9.22 2°36.528 5.3 204 16.9 101850 54
2002-09-17 07:48:07 51°9.215 2°36.505 5.1 205 16.9 101850 54
2002-09-17 07:48:13 51°9.205 2°36.471 5.5 199 16.9 101850 54
2002-09-17 07:48:18 51°9.198 2°36.443 5 203 16.9 101840 55
2002-09-17 07:48:23 51°9.19 2°36.416 5.3 193 16.9 101840 55
2002-09-17 07:48:27 51°9.184 2°36.393 4.9 201 16.9 101850 56
2002-09-17 07:48:33 51°9.175 2°36.359 4.5 198 16.9 101850 56
2002-09-17 07:48:38 51°9.167 2°36.331 4.5 199 16.9 101840 52
2002-09-17 07:48:43 51°9.16 2°36.303 4.1 198 16.9 101840 52
2002-09-17 07:48:47 51°9.153 2°36.281 5.3 207 16.9 101840 53
2002-09-17 07:48:53 51°9.144 2°36.247 5.1 198 16.9 101840 53
2002-09-17 07:48:58 51°9.137 2°36.219 5.1 203 16.9 101850 52
2002-09-17 07:49:03 51°9.128 2°36.192 4.6 196 16.9 101850 52
2002-09-17 07:49:07 51°9.123 2°36.169 5.1 198 16.9 101850 56
2002-09-17 07:49:13 51°9.113 2°36.136 4.8 203 16.9 101850 56
2002-09-17 07:49:18 51°9.106 2°36.107 4.8 196 16.9 101840 54
2002-09-17 07:49:22 51°9.1 2°36.085 4.2 188 16.9 101840 54
2002-09-17 07:49:27 51°9.093 2°36.056 4.2 198 16.8 101840 54
2002-09-17 07:49:33 51°9.084 2°36.023 4.1 192 16.8 101840 54
2002-09-17 07:49:38 51°9.076 2°35.995 3.6 199 16.9 101850 55
2002-09-17 07:49:43 51°9.068 2°35.967 3.8 206 16.9 101850 55
2002-09-17 07:49:47 51°9.061 2°35.945 3.8 188 16.9 101850 55
2002-09-17 07:49:54 51°9.051 2°35.905 3.1 197 16.9 101850 55
2002-09-17 07:49:58 51°9.044 2°35.883 4.3 194 16.9 101840 55
2002-09-17 07:50:03 51°9.037 2°35.855 3.6 191 16.9 101840 55
2002-09-17 07:50:08 51°9.029 2°35.827 3.9 193 16.9 101850 54
2002-09-17 07:50:14 51°9.02 2°35.794 3.9 200 16.9 101850 54
2002-09-17 07:50:18 51°9.013 2°35.772 4 197 16.9 101850 57
2002-09-17 07:50:23 51°9.006 2°35.743 4.3 185 16.9 101850 57
2002-09-17 07:50:28 51°8.998 2°35.715 3.9 193 16.9 101850 58
2002-09-17 07:50:33 51°8.991 2°35.687 3.3 188 16.9 101850 58
2002-09-17 07:50:38 51°8.983 2°35.659 3.1 184 16.9 101850 58
2002-09-17 07:50:43 51°8.976 2°35.631 4.3 206 16.9 101850 58
2002-09-17 07:50:46 51°8.971 2°35.613 5.4 197 16.9 101840 55
2002-09-17 07:50:53 51°8.961 2°35.574 5 196 16.9 101840 55
2002-09-17 07:50:58 51°8.952 2°35.546 4.7 186 16.9 101850 54
2002-09-17 07:51:03 51°8.946 2°35.517 4.1 190 16.9 101850 54
2002-09-17 07:51:07 51°8.939 2°35.496 4.5 193 16.9 101850 59
2002-09-17 07:51:14 51°8.928 2°35.457 4.8 201 16.9 101850 59
2002-09-17 07:51:18 51°8.922 2°35.433 5.3 193 16.9 101840 57
2002-09-17 07:51:23 51°8.915 2°35.406 4.6 198 16.9 101840 57
2002-09-17 07:51:28 51°8.907 2°35.378 4.9 198 16.9 101840 57
2002-09-17 07:51:33 51°8.899 2°35.349 4.7 205 16.9 101840 57
2002-09-17 07:51:38 51°8.891 2°35.321 4.9 198 16.9 101840 55
2002-09-17 07:51:43 51°8.885 2°35.293 4.5 199 16.9 101840 55
2002-09-17 07:51:47 51°8.878 2°35.27 4.8 197 16.9 101850 56
2002-09-17 07:51:54 51°8.868 2°35.231 4.4 207 16.9 101850 56
2002-09-17 07:51:58 51°8.862 2°35.208 5.1 201 16.9 101850 59
2002-09-17 07:52:03 51°8.854 2°35.18 4.6 200 16.9 101850 59
2002-09-17 07:52:06 51°8.85 2°35.163 4.7 203 16.9 101850 56
2002-09-17 07:52:13 51°8.839 2°35.124 4.3 190 16.9 101850 56
2002-09-17 07:52:18 51°8.831 2°35.096 4.9 180 16.9 101850 55
2002-09-17 07:52:23 51°8.823 2°35.068 4.3 186 16.9 101850 55
2002-09-17 07:52:28 51°8.815 2°35.04 4.9 186 16.9 101850 58
2002-09-17 07:52:33 51°8.808 2°35.012 4.4 193 16.9 101850 58
2002-09-17 07:52:38 51°8.799 2°34.985 4.4 185 16.9 101850 56
2002-09-17 07:52:43 51°8.792 2°34.955 4 186 16.9 101850 56
2002-09-17 07:52:47 51°8.786 2°34.933 3.9 185 16.9 101840 54
2002-09-17 07:52:53 51°8.776 2°34.9 4 191 16.9 101840 54
2002-09-17 07:52:58 51°8.769 2°34.871 4.3 188 16.9 101850 53
2002-09-17 07:53:03 51°8.761 2°34.844 4.1 187 16.9 101850 53
2002-09-17 07:53:07 51°8.755 2°34.82 3.9 187 16.9 101840 53
2002-09-17 07:53:13 51°8.747 2°34.786 3.8 187 16.9 101840 53
2002-09-17 07:53:18 51°8.738 2°34.759 3.5 186 16.9 101850 56
2002-09-17 07:53:23 51°8.731 2°34.731 3.5 201 16.9 101850 56
2002-09-17 07:53:27 51°8.724 2°34.708 4.3 208 16.9 101850 56
2002-09-17 07:53:34 51°8.714 2°34.668 4.5 204 16.9 101850 56
2002-09-17 07:53:38 51°8.708 2°34.647 4.7 208 16.9 101850 57
2002-09-17 07:53:42 51°8.701 2°34.624 5.1 207 16.9 101850 57
2002-09-17 07:53:47 51°8.694 2°34.595 3.6 220 16.9 101850 58
2002-09-17 07:53:53 51°8.684 2°34.562 4.9 226 16.9 101850 58
2002-09-17 07:53:58 51°8.676 2°34.534 7.3 208 16.9 101850 56
2002-09-17 07:54:03 51°8.669 2°34.505 7.6 175 16.9 101850 56
2002-09-17 07:54:08 51°8.661 2°34.477 8.3 173 16.9 101840 57
2002-09-17 07:54:14 51°8.651 2°34.445 7.1 181 16.9 101840 57
2002-09-17 07:54:17 51°8.646 2°34.428 7 180 16.9 101850 59
2002-09-17 07:54:23 51°8.637 2°34.395 5.8 182 16.9 101850 59
2002-09-17 07:54:28 51°8.628 2°34.367 5.6 184 16.9 101830 58
2002-09-17 07:54:33 51°8.62 2°34.34 5 190 16.9 101830 58
2002-09-17 07:54:38 51°8.61 2°34.313 5 184 16.9 101830 56
2002-09-17 07:54:42 51°8.603 2°34.291 4.1 187 16.9 101830 56
2002-09-17 07:54:47 51°8.594 2°34.265 4.4 181 16.9 101840 55
2002-09-17 07:54:53 51°8.582 2°34.234 4.7 203 16.9 101840 55
2002-09-17 07:54:58 51°8.571 2°34.208 6.5 181 16.9 101840 53
2002-09-17 07:55:03 51°8.563 2°34.18 4.6 193 16.9 101840 53
2002-09-17 07:55:07 51°8.553 2°34.161 4.5 184 16.9 101840 52
2002-09-17 07:55:13 51°8.542 2°34.129 4.4 186 16.9 101840 52
2002-09-17 07:55:18 51°8.531 2°34.105 4.6 189 16.9 101850 57
2002-09-17 07:55:23 51°8.521 2°34.079 4.9 200 16.9 101850 57
2002-09-17 07:55:27 51°8.511 2°34.06 4.9 182 16.9 101850 54
2002-09-17 07:55:33 51°8.498 2°34.028 3.9 187 16.9 101850 54
2002-09-17 07:55:38 51°8.487 2°34.004 1.9 192 16.9 101840 53
2002-09-17 07:55:43 51°8.476 2°33.98 4.9 187 16.9 101840 53
2002-09-17 07:55:47 51°8.467 2°33.959 5.2 193 16.9 101850 53
2002-09-17 07:55:53 51°8.454 2°33.928 4.5 178 16.9 101850 53
2002-09-17 07:55:58 51°8.444 2°33.903 3.8 198 16.9 101840 54
2002-09-17 07:56:03 51°8.432 2°33.879 4.3 188 16.9 101840 54
2002-09-17 07:56:07 51°8.424 2°33.858 4.5 201 16.9 101850 52
2002-09-17 07:56:14 51°8.408 2°33.822 4.9 196 16.9 101850 52
2002-09-17 07:56:18 51°8.399 2°33.803 5.1 194 16.9 101840 53
2002-09-17 07:56:23 51°8.389 2°33.777 5.1 191 16.9 101840 53
2002-09-17 07:56:27 51°8.38 2°33.756 5.3 184 16.9 101840 55
2002-09-17 07:56:33 51°8.367 2°33.726 5.4 179 16.9 101840 55
2002-09-17 07:56:38 51°8.356 2°33.701 4.4 179 16.9 101850 56
2002-09-17 07:56:43 51°8.345 2°33.675 4.7 183 16.9 101850 56
2002-09-17 07:56:48 51°8.335 2°33.65 3.7 185 16.9 101850 56
2002-09-17 07:56:53 51°8.324 2°33.624 3.9 189 16.9 101850 56
2002-09-17 07:56:58 51°8.313 2°33.598 4.1 185 16.9 101840 54
2002-09-17 07:57:03 51°8.302 2°33.573 3.7 187 16.9 101840 54
2002-09-17 07:57:07 51°8.294 2°33.553 3.8 188 16.9 101840 52
2002-09-17 07:57:14 51°8.279 2°33.516 3.9 196 16.9 101840 52
2002-09-17 07:57:18 51°8.271 2°33.495 4.5 191 16.9 101850 54
2002-09-17 07:57:23 51°8.26 2°33.47 4.7 186 16.9 101850 54
2002-09-17 07:57:27 51°8.252 2°33.449 4.3 193 16.9 101850 57
2002-09-17 07:57:33 51°8.239 2°33.419 4.9 190 16.9 101850 57
2002-09-17 07:57:38 51°8.229 2°33.394 4.9 195 16.9 101840 55
2002-09-17 07:57:43 51°8.218 2°33.368 4.7 184 16.9 101840 55
2002-09-17 07:57:47 51°8.209 2°33.349 5.9 173 16.9 101850 53
2002-09-17 07:57:54 51°8.194 2°33.314 4.1 178 16.9 101850 53
2002-09-17 07:57:58 51°8.185 2°33.294 5 176 16.9 101850 56
2002-09-17 07:58:03 51°8.174 2°33.269 4.5 181 16.9 101850 56
2002-09-17 07:58:08 51°8.163 2°33.243 4.7 182 16.9 101850 54
2002-09-17 07:58:14 51°8.151 2°33.213 5.3 175 16.9 101850 54
2002-09-17 07:58:18 51°8.141 2°33.194 4 184 16.9 101840 54
2002-09-17 07:58:23 51°8.13 2°33.169 4.5 193 16.9 101840 54
2002-09-17 07:58:28 51°8.119 2°33.144 4.5 182 16.9 101850 53
2002-09-17 07:58:33 51°8.108 2°33.118 3.7 185 16.9 101850 53
2002-09-17 07:58:38 51°8.097 2°33.094 4.4 184 16.9 101850 54
2002-09-17 07:58:43 51°8.086 2°33.069 4.1 187 16.9 101850 54
2002-09-17 07:58:47 51°8.077 2°33.048 3.8 185 16.9 101840 53
2002-09-17 07:58:54 51°8.062 2°33.013 4.2 184 16.9 101840 53
2002-09-17 07:58:59 51°8.05 2°32.989 3.7 185 16.9 101850 54
2002-09-17 07:59:03 51°8.042 2°32.968 4.1 191 16.9 101850 54
2002-09-17 07:59:07 51°8.033 2°32.948 3.4 188 16.9 101840 53
2002-09-17 07:59:13 51°8.02 2°32.919 4 178 16.9 101840 53
2002-09-17 07:59:18 51°8.009 2°32.894 4 174 16.9 101850 53
2002-09-17 07:59:23 51°7.998 2°32.869 3.3 180 16.9 101850 53
2002-09-17 07:59:26 51°7.991 2°32.854 3.2 180 16.9 101850 56
2002-09-17 07:59:33 51°7.976 2°32.819 3.1 189 16.9 101850 56
2002-09-17 07:59:38 51°7.965 2°32.795 3.9 190 16.9 101850 53
2002-09-17 07:59:43 51°7.954 2°32.769 3.3 182 16.9 101850 53
2002-09-17 07:59:47 51°7.945 2°32.75 3.6 199 16.9 101850 53
2002-09-17 07:59:53 51°7.932 2°32.721 3.9 150 16.9 101850 53
2002-09-17 07:59:58 51°7.921 2°32.696 3.1 176 16.9 101850 54
2002-09-17 08:00:03 51°7.91 2°32.671 3 163 16.9 101850 54
2002-09-17 08:00:09 51°7.896 2°32.643 2.5 178 16.9 101850 54
2002-09-17 08:00:13 51°7.888 2°32.623 3.7 169 16.9 101850 54
2002-09-17 08:00:18 51°7.877 2°32.599 3.2 188 16.9 101850 55
2002-09-17 08:00:23 51°7.865 2°32.575 3.1 169 16.9 101850 55
2002-09-17 08:00:27 51°7.856 2°32.555 2.7 178 16.9 101850 55
2002-09-17 08:00:34 51°7.84 2°32.522 2.4 197 16.9 101850 55
2002-09-17 08:00:38 51°7.831 2°32.504 2.9 182 16.9 101850 56
2002-09-17 08:00:43 51°7.82 2°32.479 2.7 208 16.9 101850 56